User: anonymous   Login
Location: Desert Center
(33.7130°N, 115.4010°W)
Time: 05:09:30
(UTC-07:00)
Language:

USA 215 - Orbit

View from above orbital plane
View from above orbital plane
View from above satellite
View from above satellite

Ground track
Ground track

The orbit data is extracted from the following two-line orbital elements,

1 37162U 10046A   15194.66122977 0.00000000  00000-0  00000-0 0    03
2 37162 123.0041 149.0115 0004000 161.7595 198.2404 13.41441319    00
Epoch (UTC): 13 July 2015 15:52:10
Eccentricity: 0.0004000
inclination: 123.0041°
perigee height: 1101 km
apogee height: 1107 km
right ascension of ascending node: 149.0115°
argument of perigee: 161.7595°
revolutions per day: 13.41441319
mean anomaly at epoch: 198.2404°
orbit number at epoch: 0

The dashed part of the orbit path shows where the satellite is in the earth's shadow,  

DLR